Back to catalog

STARLINK-31135

AliveCommunicationsVLEO
NORAD 58771·PAYLOAD·🇺🇸 United States

Launched Jan 14, 2024 from Vandenberg Space Force Base

Loading…

Next Passes (next 24 hours)

TLE

FreshSource: CelesTrak SupGP

Epoch: Sep 14, 2026, 14:33 UTC

1 58771C 24011G   26257.60673611 -.00007982  00000+0 -23569-3 0  2570
2 58771  53.1581 212.9168 0001349  89.7418 159.3773 15.34414504    13

Track STARLINK-31135 in real time with AllMySat

Download on the App Store